(141493) = 2002 ES7

Discovered at Socorro on 2002-03-12 by LINEAR.

Orbit

Orbit type: Main Belt

Note: WebGL enabled browser required.

epoch2023-09-13.0
epoch JD2460200.5
perihelion date2022-08-31.62325
perihelion JD2459823.12325
argument of perihelion (°)286.38639
ascending node (°)332.04779
inclination (°)7.38874
eccentricity0.1603315
perihelion distance (AU)1.8608778
Tisserand w.r.t. Jupiter3.6
ΔV w.r.t. Earth (km/sec)8.7
semimajor axis (AU)2.2162053
mean anomaly (°)112.73636
mean daily motion (°/day)0.29873690
aphelion distance (AU)2.572
period (years)3.3
P-vector [x]-0.19675950
P-vector [y]-0.84331977
P-vector [z]-0.50009746
Q-vector [x]0.97859699
Q-vector [y]-0.20027912
Q-vector [z]-0.04728860
absolute magnitude16.91
phase slope0.15
uncertainty0
referenceMPEC 2024-A124
observations used575
oppositions14
arc length (days)8005
first opposition used2002
last opposition used2024
residual rms (arc-secs)0.71
perturbers coarse indicatorM-v
perturbers precise indicator003Ek
first observation date used2002-02-09.0
last observation date used2024-01-10.0
computer nameMPCLINUX
JD of orbit computation2456670.850668
perihelion JD uncertainty (days)1.3152E-04
argument of perihelion uncertainty (°)6.1651E-05
ascending node uncertainty (°)4.6713E-05
inclination uncertainty (°)1.1220E-05
eccentricity uncertainty 4.5062E-08
perihelion distance uncertainty (AU)1.0092E-07
Minimum Orbit Intersection Distances (in AU)
for orbit epoch: 2460200.5, reference: E2024-AC4
Mercury1.39539
Venus1.14273
Earth0.8614
Mars0.40333
Jupiter2.52539
Saturn6.51935
Uranus16.1615
Neptune27.3787

Observations

585 total observations over interval: 2002 02 09.33509 – 2024 01 10.113936
These data are available for download (format description).

Date (UT) J2000 RA J2000 Dec Magn Location Ref
2002 02 09.33509 11 09 21.36 +04 40 35.3 20.0 V 291 – LPL/Spacewatch II MPS 55658
2002 02 09.35556 11 09 20.34 +04 40 36.2 20.0 V 291 – LPL/Spacewatch II MPS 55658
2002 02 09.37573 11 09 19.35 +04 40 36.9 20.2 V 291 – LPL/Spacewatch II MPS 55658
2002 02 11.37828 11 07 40.97 +04 42 08.0 19.2   704 – Lincoln Laboratory ETS, New Mexico MPS 55658
2002 02 11.39264 11 07 40.19 +04 42 08.9 19.8   704 – Lincoln Laboratory ETS, New Mexico MPS 55658
2002 02 11.40720 11 07 39.41 +04 42 09.4 19.8   704 – Lincoln Laboratory ETS, New Mexico MPS 55658
2002 02 11.42163 11 07 38.61 +04 42 11.0 20.2   704 – Lincoln Laboratory ETS, New Mexico MPS 55658
2002 02 20.31935 10 59 08.56 +04 54 50.3 20.7   704 – Lincoln Laboratory ETS, New Mexico MPS 52816
2002 02 20.33344 10 59 07.61 +04 54 51.3 19.8   704 – Lincoln Laboratory ETS, New Mexico MPS 52816
2002 02 20.34803 10 59 06.70 +04 54 53.9 20.4   704 – Lincoln Laboratory ETS, New Mexico MPS 52816
2002 02 20.36264 10 59 05.69 +04 54 54.5 20.2   704 – Lincoln Laboratory ETS, New Mexico MPS 52816
2002 02 21.35725 10 58 02.46 +04 56 50.4 19.5   704 – Lincoln Laboratory ETS, New Mexico MPS 52816
2002 02 21.37955 10 58 00.95 +04 56 53.6 20.0   704 – Lincoln Laboratory ETS, New Mexico MPS 52816
2002 02 21.40240 10 57 59.42 +04 56 56.6 19.8   704 – Lincoln Laboratory ETS, New Mexico MPS 52816
2002 02 21.41998 10 57 58.23 +04 56 57.9 19.8   704 – Lincoln Laboratory ETS, New Mexico MPS 52816
2002 02 21.43867 10 57 57.00 +04 56 59.9 19.6   704 – Lincoln Laboratory ETS, New Mexico MPS 52816
2002 03 05.39798 10 44 24.46 +05 24 49.9 19.2   644 – Palomar Mountain/NEAT MPS 55658
2002 03 05.41904 10 44 22.96 +05 24 53.1 19.5   644 – Palomar Mountain/NEAT MPS 55658
2002 03 05.43929 10 44 21.49 +05 24 56.0 19.9   644 – Palomar Mountain/NEAT MPS 55658
2002 03 09.21485 10 40 00.53 +05 34 27.7 19.6 V 691 – Steward Observatory, Kitt Peak-Spacewatch MPS 55658
2002 03 09.23635 10 39 59.00 +05 34 30.9 19.7 V 691 – Steward Observatory, Kitt Peak-Spacewatch MPS 55658
2002 03 09.25815 10 39 57.45 +05 34 34.3 20.0 V 691 – Steward Observatory, Kitt Peak-Spacewatch MPS 55658
2002 03 12.30827 10 36 30.73 +05 42 05.7 18.6   704 – Lincoln Laboratory ETS, New Mexico MPS 52816
2002 03 12.32700 10 36 29.49 +05 42 08.4 19.0   704 – Lincoln Laboratory ETS, New Mexico MPS 52816
2002 03 12.34592 10 36 28.14 +05 42 11.2 19.1   704 – Lincoln Laboratory ETS, New Mexico MPS 52816
2002 03 13.25690 10 35 27.95 +05 44 21.2 18.6   704 – Lincoln Laboratory ETS, New Mexico MPS 52816
2002 03 13.28451 10 35 26.06 +05 44 25.0 19.0   704 – Lincoln Laboratory ETS, New Mexico MPS 52816
2002 03 13.29835 10 35 25.17 +05 44 27.3 18.9   704 – Lincoln Laboratory ETS, New Mexico MPS 52816
2002 03 13.31223 10 35 24.15 +05 44 29.1 19.1   704 – Lincoln Laboratory ETS, New Mexico MPS 52816
2002 03 13.31667 10 35 23.92 +05 44 29.4 19.2   644 – Palomar Mountain/NEAT MPS 55658
2002 03 13.33905 10 35 22.37 +05 44 32.8 19.4   644 – Palomar Mountain/NEAT MPS 55658
2002 03 13.36186 10 35 20.83 +05 44 35.8 19.4   644 – Palomar Mountain/NEAT MPS 55658
2002 03 15.23907 10 33 19.16 +05 48 56.4 19.3   704 – Lincoln Laboratory ETS, New Mexico MPS 52816
2002 03 15.25244 10 33 18.27 +05 48 59.4 20.2   704 – Lincoln Laboratory ETS, New Mexico MPS 52816
2002 03 15.26584 10 33 17.38 +05 49 00.9 19.8   704 – Lincoln Laboratory ETS, New Mexico MPS 52816
2002 03 15.27931 10 33 16.41 +05 49 02.9 19.5   704 – Lincoln Laboratory ETS, New Mexico MPS 52816
2002 04 12.15676 10 13 56.09 +06 13 30.8 19.4   704 – Lincoln Laboratory ETS, New Mexico MPS 55658
2002 04 12.18460 10 13 55.58 +06 13 28.7 20.1   704 – Lincoln Laboratory ETS, New Mexico MPS 55658
2002 04 12.21243 10 13 55.18 +06 13 26.8 20.0   704 – Lincoln Laboratory ETS, New Mexico MPS 55658
2003 09 30.24379 00 34 17.06 +12 27 26.0 19.7   704 – Lincoln Laboratory ETS, New Mexico MPS 86909
2003 09 30.25726 00 34 16.19 +12 27 23.5 19.7   704 – Lincoln Laboratory ETS, New Mexico MPS 86909
2003 09 30.27011 00 34 15.37 +12 27 20.4 19.4   704 – Lincoln Laboratory ETS, New Mexico MPS 86909
2003 09 30.28318 00 34 14.42 +12 27 16.7 20.0   704 – Lincoln Laboratory ETS, New Mexico MPS 86909
2003 09 30.29628 00 34 13.45 +12 27 14.1 19.7   704 – Lincoln Laboratory ETS, New Mexico MPS 86909
2003 10 01.20500 00 33 12.89 +12 23 45.9 20.1 V 691 – Steward Observatory, Kitt Peak-Spacewatch MPS 86909
2003 10 01.23108 00 33 11.07 +12 23 40.0 20.0 V 691 – Steward Observatory, Kitt Peak-Spacewatch MPS 86909
2003 10 01.25724 00 33 09.27 +12 23 34.0 20.0 V 691 – Steward Observatory, Kitt Peak-Spacewatch MPS 86909
2003 10 17.26452 00 16 26.43 +11 10 52.2 19.7 R 699 – Lowell Observatory-LONEOS MPS 87954
2003 10 17.27930 00 16 25.60 +11 10 48.9   699 – Lowell Observatory-LONEOS MPS 87954
2003 10 17.29416 00 16 24.64 +11 10 44.8   699 – Lowell Observatory-LONEOS MPS 87954
2003 10 17.30911 00 16 23.85 +11 10 39.7   699 – Lowell Observatory-LONEOS MPS 87954
2003 10 18.10690 00 15 40.71 +11 06 47.3 20.8 V 691 – Steward Observatory, Kitt Peak-Spacewatch MPS 87954
2003 10 18.13458 00 15 39.16 +11 06 39.6 20.5 V 691 – Steward Observatory, Kitt Peak-Spacewatch MPS 87954
2003 10 18.16224 00 15 37.59 +11 06 31.4 20.4 V 691 – Steward Observatory, Kitt Peak-Spacewatch MPS 87954
2005 01 17.27570 08 30 40.59 +25 31 51.0 20.1 V 691 – Steward Observatory, Kitt Peak-Spacewatch MPS 124672
2005 01 17.30163 08 30 38.60 +25 31 54.2 20.0 V 691 – Steward Observatory, Kitt Peak-Spacewatch MPS 124672
2005 01 17.32803 08 30 36.63 +25 31 57.3 20.1 V 691 – Steward Observatory, Kitt Peak-Spacewatch MPS 124672
2006 08 19.25694 21 36 41.22 -16 35 53.4 18.2 R 699 – Lowell Observatory-LONEOS MPS 175971
2006 08 19.27518 21 36 39.92 -16 35 52.8   699 – Lowell Observatory-LONEOS MPS 175971
2006 08 19.29343 21 36 38.70 -16 35 51.2   699 – Lowell Observatory-LONEOS MPS 175971
2006 08 19.33102 21 36 36.01 -16 35 51.0   699 – Lowell Observatory-LONEOS MPS 175971
2006 08 21.17719 21 34 32.85 -16 34 41.2 17.5 R 807 – Cerro Tololo Observatory, La Serena MPS 182513
2006 08 21.26808 21 34 26.56 -16 34 37.4   807 – Cerro Tololo Observatory, La Serena MPS 182513
2006 08 29.20166 21 26 17.40 -16 26 56.5 19.4   704 – Lincoln Laboratory ETS, New Mexico MPS 176899
2006 08 29.21288 21 26 16.77 -16 26 55.9 19.3   704 – Lincoln Laboratory ETS, New Mexico MPS 176899
2006 08 29.22407 21 26 16.09 -16 26 56.3 19.4   704 – Lincoln Laboratory ETS, New Mexico MPS 176899
2006 08 29.23530 21 26 15.43 -16 26 54.6 19.2   704 – Lincoln Laboratory ETS, New Mexico MPS 176899
2006 09 13.15600 21 15 32.10 -15 55 48.6 19.9 R 644 – Palomar Mountain/NEAT MPS 179173
2006 09 13.17676 21 15 31.46 -15 55 45.4 20.0 R 644 – Palomar Mountain/NEAT MPS 179173
2006 09 13.20063 21 15 30.73 -15 55 41.3 20.2 R 644 – Palomar Mountain/NEAT MPS 179173
2006 09 26.17021 21 12 22.60 -15 11 59.1 19.7 V G96 – Mt. Lemmon Survey MPS 180861
2006 09 26.17706 21 12 22.57 -15 11 57.4 20.1 V G96 – Mt. Lemmon Survey MPS 180861
2006 09 26.18376 21 12 22.53 -15 11 56.1 19.8 V G96 – Mt. Lemmon Survey MPS 180861
2006 09 26.19052 21 12 22.50 -15 11 54.3 19.9 V G96 – Mt. Lemmon Survey MPS 180861
2006 09 27.13531 21 12 22.93 -15 08 08.9 19.8 V G96 – Mt. Lemmon Survey MPS 180861
2006 09 27.14330 21 12 22.93 -15 08 07.2 19.6 V G96 – Mt. Lemmon Survey MPS 180861
2006 09 27.15125 21 12 22.93 -15 08 05.3 19.8 V G96 – Mt. Lemmon Survey MPS 180861
2006 10 21.11780 21 21 48.16 -13 09 37.6 20.5 V G96 – Mt. Lemmon Survey MPS 183958
2006 10 21.12235 21 21 48.38 -13 09 35.8 20.3 V G96 – Mt. Lemmon Survey MPS 183958
2006 10 21.12692 21 21 48.56 -13 09 34.3 20.3 V G96 – Mt. Lemmon Survey MPS 183958
2006 10 21.13142 21 21 48.74 -13 09 32.8 21.0 V G96 – Mt. Lemmon Survey MPS 183958
2010 11 11.31024 03 49 49.47 +32 15 16.2 19.5 V 703 – Catalina Sky Survey MPS 356952
2010 11 11.31631 03 49 48.93 +32 15 16.4 19.7 V 703 – Catalina Sky Survey MPS 356952
2010 11 11.32240 03 49 48.46 +32 15 15.3 20.4 V 703 – Catalina Sky Survey MPS 356952
2010 11 11.32840 03 49 48.10 +32 15 14.1 19.9 V 703 – Catalina Sky Survey MPS 356952
2012 02 19.42147 12 14 44.46 -05 49 38.7 20.2 V 691 – Steward Observatory, Kitt Peak-Spacewatch MPS 413825
